User: anonymous
Location: Huntington Beach
(33.6600°N, 117.9980°W)
Time: 03:25:30
(UTC-07:00)
Language:

SL-16 R/B - Orbit

View from above orbital plane
View from above orbital plane
View from above satellite
View from above satellite

Ground track
Ground track

The orbit data is extracted from the following two-line orbital elements,

1 28353U 04021B   14273.75416834 -.00000221  00000-0 -91304-4 0  8507
2 28353 071.0027 355.4293 0007387 267.2894 236.7434 14.14085462532143
Epoch (UTC): 30 September 2014 18:06:00
Eccentricity: 0.0007387
inclination: 71.0027°
perigee height: 840 km
apogee height: 851 km
right ascension of ascending node: 355.4293°
argument of perigee: 267.2894°
revolutions per day: 14.14085462
mean anomaly at epoch: 236.7434°
orbit number at epoch: 53214

The dashed part of the orbit path shows where the satellite is in the earth's shadow,  

DLR